Regional Weather Roundup
Issued by NWS Columbia, SC

Home | Current Version | Previous Version | Text Only | Print | Product List | Glossary On
Versions: 1 2 3 4 5 6 7 8 9 10 11 12 13 14 15 16 17 18 19 20 21 22 23 24 25 26 27 28 29 30 31 32 33 34 35 36 37 38 39 40 41 42 43 44 45 46 47 48 49 50
000
ASUS42 KCAE 211210
RWRCAE
REGIONAL WEATHER ROUNDUP
NATIONAL WEATHER SERVICE COLUMBIA SC
700 AM EST SUN JAN 21 2018

NOTE: "FAIR" INDICATES FEW OR NO CLOUDS BELOW 12,000 FEET WITH NO
SIGNIFICANT WEATHER AND/OR OBSTRUCTIONS TO VISIBILITY.

NOT ALL STATIONS ARE QUALITY CONTROLLED BY THE NATIONAL
WEATHER SERVICE. USE DATA WITH CAUTION...ESPECIALLY
DEWPOINT OBSERVATIONS.

SCZ001>056-GAZ040-063>065-077-211300-
...UPSTATE SOUTH CAROLINA...

CITY           SKY/WX    TMP DP  RH WIND       PRES   REMARKS
ANDERSON       FAIR      34  32  92 CALM      30.24R
6HR MIN TEMP:  34; 6HR MAX TEMP:  40;

LIBERTY        FAIR      29  29 100 CALM      30.22R
6HR MIN TEMP:  29; 6HR MAX TEMP:  35;

SPARTANBURG    FAIR      34  32  93 CALM      30.23R
CLEMSON        FAIR      42  41  96 NW3       30.24R
6HR MIN TEMP:  37; 6HR MAX TEMP:  47;

GREENVILLE     FAIR      40  34  79 CALM      30.23R
6HR MIN TEMP:  37; 6HR MAX TEMP:  44;

GREENWOOD      FAIR      32  31  96 NW3       30.26R
6HR MIN TEMP:  31; 6HR MAX TEMP:  40;

GREER          FAIR      37  34  89 NE3       30.23R
6HR MIN TEMP:  37; 6HR MAX TEMP:  42;

ROCK HILL      FAIR      33  30  88 CALM      30.24R
6HR MIN TEMP:  31; 6HR MAX TEMP:  37;

CHESTER        FAIR      34  32  93 CALM      30.25R
LAURENS        FAIR      34  34 100 CALM      30.24R


...CENTRAL SOUTH CAROLINA...

CITY           SKY/WX    TMP DP  RH WIND       PRES   REMARKS
COLUMBIA APT   FAIR      32  30  92 CALM      30.25R
6HR MIN TEMP:  32; 6HR MAX TEMP:  37;

COLUMBIA OWENS FAIR      35  32  88 CALM      30.26R
6HR MIN TEMP:  34; 6HR MAX TEMP:  37;

MCENTIRE ANGB  PTCLDY    31  28  90 CALM      30.25R
6HR MIN TEMP:  31; 6HR MAX TEMP:  34;

ORANGEBURG     FAIR      35  33  92 CALM      30.25R
6HR MIN TEMP:  34; 6HR MAX TEMP:  37;

SUMTER SHAW    FAIR      34  31  86 CALM      30.23R
6HR MIN TEMP:  34; 6HR MAX TEMP:  38;

NEWBERRY       FAIR      34  34 100 CALM      30.27S
AIKEN          FAIR      32  32 100 CALM      30.28R
BARNWELL         N/A     34  34 100 CALM      30.25R
MANNING        FAIR      34  32  93 MISG      30.26S
CAMDEN         FAIR      30  27  86 CALM      30.26R
LANCASTER      FAIR      32  32 100 CALM      30.25R
WINNSBORO      FAIR      39  34  81 SW3       30.24R


...EASTERN AND COASTAL SOUTH CAROLINA...

CITY           SKY/WX    TMP DP  RH WIND       PRES   REMARKS
MYRTLE BEACH   FAIR      41  33  73 W3        30.26S
6HR MIN TEMP:  39; 6HR MAX TEMP:  45;

N MYRTLE BCH   FAIR      40  34  79 N3        30.25R
6HR MIN TEMP:  36; 6HR MAX TEMP:  44;

CONWAY         FAIR      36  34  93 CALM      30.26R
MARION         FAIR      34  32  93 CALM      30.26R
HARTSVILLE     FAIR      37  32  81 W3        30.24R
FLORENCE       FAIR      34  31  88 CALM      30.24R
6HR MIN TEMP:  33; 6HR MAX TEMP:  38;

DARLINGTON     FAIR      36  29  75 CALM      30.25R
6HR MIN TEMP:  33; 6HR MAX TEMP:  38;

CHARLESTON APT MOCLDY    47  30  51 CALM      30.26R
6HR MIN TEMP:  46; 6HR MAX TEMP:  50;

MOUNT PLEASANT FAIR      45  36  70 CALM      30.26R
WALTERBORO     FAIR      37  34  87 CALM      30.27R
BEAUFORT       FAIR      47  33  58 CALM      30.26
6HR MIN TEMP:  46; 6HR MAX TEMP:  50;



...EASTERN GEORGIA...

CITY           SKY/WX    TMP DP  RH WIND       PRES   REMARKS
AUGUSTA BUSH F FAIR      33  31  92 CALM      30.26R FOG
6HR MIN TEMP:  31; 6HR MAX TEMP:  36;

AUGUSTA DANIEL FAIR      43  38  82 CALM      30.25R
6HR MIN TEMP:  41; 6HR MAX TEMP:  51;

THOMSON        FAIR      32  31  95 CALM      30.30R
6HR MIN TEMP:  32; 6HR MAX TEMP:  36;

WASHINGTON     FAIR      37  36  93 CALM      30.24S
CLAXTON        FAIR      41  38  91 CALM      30.26S
6HR MIN TEMP:  41; 6HR MAX TEMP:  44;

SYLVANIA       FAIR      39  37  93 CALM      30.26S
6HR MIN TEMP:  39; 6HR MAX TEMP:  48;

STATESBORO     FAIR      38  32  78 CALM      30.26R
6HR MIN TEMP:  37; 6HR MAX TEMP:  51;

SAVANNAH       MOCLDY    46  31  55 CALM      30.26F
6HR MIN TEMP:  45; 6HR MAX TEMP:  50;



...SOUTHERN NORTH CAROLINA...

CITY           SKY/WX    TMP DP  RH WIND       PRES   REMARKS
CHARLOTTE      FAIR      36  32  85 N3        30.23S
6HR MIN TEMP:  33; 6HR MAX TEMP:  44;

MONROE         FAIR      35  31  85 W5        30.23R WCI  31
6HR MIN TEMP:  34; 6HR MAX TEMP:  45;

WADESBORO      FAIR      28  25  88 CALM      30.26R
6HR MIN TEMP:  28; 6HR MAX TEMP:  32;

ROCKINGHAM     FAIR      33  29  88 CALM      30.24R
6HR MIN TEMP:  32; 6HR MAX TEMP:  39;

RUTHERFORDTON  FAIR      33  33 100 CALM      30.24R
6HR MIN TEMP:  31; 6HR MAX TEMP:  38;

ASHEVILLE      FAIR      28  27  96 CALM      30.26R FOG
6HR MIN TEMP:  28; 6HR MAX TEMP:  34;


$$



USA.gov is the U.S. government's official web portal to all federal, state and local government web resources and services.